When you browse on this site, cookies collect data to enhance your experience and personalize the content and advertising you see.
Visit our Privacy Policy to learn more. By continuing to use the site, you agree to this use of cookies and data.

Meteo pe oră la Saint-Pierre-des-Corps

Astăzi, 4 Iulie, Sâmbătă

Timp Temperatura Precipitaţii Vânt Presiune Umiditate
00:00 +12°C° 0 mm 3 m/s 762 mmHg 93%
01:00 +12°C° 0 mm 3 m/s 761 mmHg 94%
02:00 +12°C° 0 mm 3 m/s 761 mmHg 95%
03:00 +11°C° 0 mm 3 m/s 761 mmHg 96%
04:00 +12°C° 0 mm 3 m/s 761 mmHg 93%
05:00 +13°C° 0 mm 4 m/s 761 mmHg 91%
06:00 +14°C° 0 mm 4 m/s 761 mmHg 88%
07:00 +15°C° 0 mm 5 m/s 761 mmHg 83%
08:00 +16°C° 0 mm 5 m/s 761 mmHg 79%
09:00 +19°C° 0 mm 5 m/s 761 mmHg 75%
10:00 +20°C° 0 mm 6 m/s 761 mmHg 72%
11:00 +22°C° 0 mm 6 m/s 761 mmHg 69%
12:00 +23°C° 0 mm 6 m/s 760 mmHg 66%
13:00 +22°C° 0 mm 6 m/s 760 mmHg 69%
14:00 +22°C° 0 mm 6 m/s 760 mmHg 72%
15:00 +21°C° 0 mm 5 m/s 760 mmHg 76%
16:00 +20°C° 0.2 mm 5 m/s 760 mmHg 81%
17:00 +19°C° 0.2 mm 5 m/s 760 mmHg 86%
18:00 +17°C° 0.2 mm 5 m/s 760 mmHg 91%
19:00 +17°C° 0.1 mm 5 m/s 760 mmHg 92%
20:00 +17°C° 0.1 mm 5 m/s 760 mmHg 92%
21:00 +17°C° 0.1 mm 5 m/s 760 mmHg 92%
22:00 +17°C° 0 mm 5 m/s 760 mmHg 92%
23:00 +17°C° 0 mm 5 m/s 760 mmHg 93%

Mâine, 5 Iulie, Duminică

Timp Temperatura Precipitaţii Vânt Presiune Umiditate
00:00 +19°C° 0 mm 5 m/s 760 mmHg 93%
01:00 +19°C° 0 mm 5 m/s 760 mmHg 94%
02:00 +19°C° 0 mm 4 m/s 759 mmHg 94%
03:00 +19°C° 0 mm 4 m/s 759 mmHg 94%
04:00 +19°C° 0 mm 4 m/s 759 mmHg 94%
05:00 +19°C° 0 mm 4 m/s 759 mmHg 93%
06:00 +19°C° 0 mm 4 m/s 759 mmHg 93%
07:00 +19°C° 0 mm 4 m/s 759 mmHg 89%
08:00 +20°C° 0 mm 5 m/s 760 mmHg 85%
09:00 +21°C° 0 mm 5 m/s 760 mmHg 81%
10:00 +21°C° 0 mm 5 m/s 760 mmHg 79%
11:00 +22°C° 0 mm 5 m/s 760 mmHg 77%
12:00 +22°C° 0 mm 5 m/s 759 mmHg 75%
13:00 +22°C° 0 mm 6 m/s 759 mmHg 75%
14:00 +23°C° 0 mm 6 m/s 759 mmHg 75%
15:00 +23°C° 0 mm 6 m/s 759 mmHg 75%
16:00 +22°C° 0 mm 6 m/s 759 mmHg 77%
17:00 +22°C° 0 mm 5 m/s 759 mmHg 78%
18:00 +21°C° 0 mm 5 m/s 759 mmHg 80%
19:00 +20°C° 0 mm 4 m/s 759 mmHg 83%
20:00 +19°C° 0 mm 4 m/s 759 mmHg 86%
21:00 +19°C° 0 mm 4 m/s 759 mmHg 89%
22:00 +18°C° 0 mm 4 m/s 759 mmHg 88%
23:00 +17°C° 0 mm 4 m/s 759 mmHg 88%

Poimâine, 6 Iulie, Luni

Timp Temperatura Precipitaţii Vânt Presiune Umiditate
00:00 +15°C° 0 mm 4 m/s 759 mmHg 87%
01:00 +14°C° 0 mm 4 m/s 759 mmHg 86%
02:00 +13°C° 0 mm 3 m/s 759 mmHg 86%
03:00 +12°C° 0 mm 3 m/s 760 mmHg 85%
04:00 +12°C° 0 mm 3 m/s 760 mmHg 85%
05:00 +12°C° 0 mm 3 m/s 760 mmHg 85%
06:00 +12°C° 0 mm 3 m/s 761 mmHg 85%
07:00 +13°C° 0 mm 3 m/s 761 mmHg 79%
08:00 +14°C° 0 mm 3 m/s 761 mmHg 73%
09:00 +16°C° 0 mm 3 m/s 761 mmHg 67%
10:00 +17°C° 0 mm 3 m/s 761 mmHg 65%
11:00 +17°C° 0 mm 3 m/s 761 mmHg 63%
12:00 +18°C° 0 mm 3 m/s 761 mmHg 62%
13:00 +18°C° 0 mm 3 m/s 761 mmHg 61%
14:00 +19°C° 0 mm 3 m/s 761 mmHg 60%
15:00 +20°C° 0 mm 3 m/s 761 mmHg 58%
16:00 +20°C° 0 mm 3 m/s 761 mmHg 61%
17:00 +20°C° 0 mm 3 m/s 761 mmHg 64%
18:00 +20°C° 0 mm 3 m/s 761 mmHg 66%
19:00 +18°C° 0 mm 3 m/s 762 mmHg 73%
20:00 +16°C° 0 mm 3 m/s 762 mmHg 80%
21:00 +13°C° 0 mm 3 m/s 762 mmHg 86%
22:00 +12°C° 0 mm 3 m/s 762 mmHg 87%
23:00 +11°C° 0 mm 3 m/s 762 mmHg 88%

7 Iulie, Marţi

Timp Temperatura Precipitaţii Vânt Presiune Umiditate
00:00 +10°C° 0 mm 2 m/s 763 mmHg 88%
01:00 +10°C° 0 mm 2 m/s 762 mmHg 89%
02:00 +9°C° 0 mm 2 m/s 762 mmHg 91%
03:00 +9°C° 0 mm 2 m/s 762 mmHg 92%
04:00 +10°C° 0 mm 2 m/s 762 mmHg 90%
05:00 +12°C° 0 mm 2 m/s 762 mmHg 88%
06:00 +12°C° 0 mm 2 m/s 762 mmHg 86%
07:00 +14°C° 0 mm 2 m/s 762 mmHg 78%
08:00 +16°C° 0 mm 2 m/s 762 mmHg 71%
09:00 +18°C° 0 mm 2 m/s 762 mmHg 63%
10:00 +19°C° 0 mm 2 m/s 762 mmHg 60%
11:00 +21°C° 0 mm 2 m/s 762 mmHg 56%
12:00 +22°C° 0 mm 3 m/s 761 mmHg 52%
13:00 +22°C° 0 mm 3 m/s 761 mmHg 52%
14:00 +24°C° 0 mm 3 m/s 761 mmHg 52%
15:00 +24°C° 0 mm 3 m/s 761 mmHg 52%
16:00 +22°C° 0 mm 3 m/s 761 mmHg 56%
17:00 +22°C° 0 mm 3 m/s 760 mmHg 61%
18:00 +21°C° 0 mm 3 m/s 760 mmHg 65%
19:00 +20°C° 0 mm 3 m/s 761 mmHg 70%
20:00 +18°C° 0 mm 3 m/s 761 mmHg 74%
21:00 +16°C° 0 mm 3 m/s 761 mmHg 79%
22:00 +14°C° 0 mm 3 m/s 761 mmHg 80%
23:00 +14°C° 0 mm 3 m/s 761 mmHg 81%

8 Iulie, Miercuri

Timp Temperatura Precipitaţii Vânt Presiune Umiditate
00:00 +13°C° 0 mm 3 m/s 761 mmHg 82%
01:00 +12°C° 0 mm 3 m/s 761 mmHg 83%
02:00 +12°C° 0 mm 3 m/s 760 mmHg 83%
03:00 +11°C° 0 mm 3 m/s 760 mmHg 84%
04:00 +12°C° 0 mm 3 m/s 760 mmHg 82%
05:00 +13°C° 0 mm 3 m/s 760 mmHg 81%
06:00 +13°C° 0 mm 3 m/s 760 mmHg 79%
07:00 +16°C° 0 mm 3 m/s 760 mmHg 74%
08:00 +18°C° 0 mm 3 m/s 760 mmHg 69%
09:00 +20°C° 0 mm 3 m/s 760 mmHg 64%
10:00 +21°C° 0 mm 3 m/s 760 mmHg 59%
11:00 +22°C° 0 mm 3 m/s 760 mmHg 55%
12:00 +25°C° 0 mm 3 m/s 759 mmHg 51%
13:00 +25°C° 0 mm 3 m/s 759 mmHg 50%
14:00 +26°C° 0 mm 3 m/s 759 mmHg 49%
15:00 +26°C° 0 mm 3 m/s 758 mmHg 48%
16:00 +26°C° 0 mm 3 m/s 758 mmHg 52%
17:00 +25°C° 0 mm 2 m/s 758 mmHg 57%
18:00 +25°C° 0 mm 2 m/s 758 mmHg 61%
19:00 +23°C° 0 mm 2 m/s 759 mmHg 64%
20:00 +20°C° 0 mm 2 m/s 759 mmHg 68%
21:00 +18°C° 0 mm 2 m/s 759 mmHg 71%
22:00 +17°C° 0 mm 2 m/s 759 mmHg 75%
23:00 +17°C° 0 mm 2 m/s 759 mmHg 79%

9 Iulie, Joi

Timp Temperatura Precipitaţii Vânt Presiune Umiditate
00:00 +16°C° 0 mm 2 m/s 759 mmHg 83%
01:00 +15°C° 0 mm 2 m/s 759 mmHg 83%
02:00 +14°C° 0 mm 3 m/s 759 mmHg 84%
03:00 +13°C° 0 mm 3 m/s 759 mmHg 84%
04:00 +15°C° 0 mm 2 m/s 759 mmHg 82%
05:00 +16°C° 0 mm 2 m/s 759 mmHg 80%
06:00 +16°C° 0 mm 2 m/s 759 mmHg 78%
07:00 +18°C° 0 mm 2 m/s 759 mmHg 73%
08:00 +20°C° 0 mm 2 m/s 760 mmHg 68%
09:00 +23°C° 0 mm 2 m/s 760 mmHg 63%
10:00 +24°C° 0 mm 2 m/s 759 mmHg 59%
11:00 +25°C° 0 mm 2 m/s 759 mmHg 55%
12:00 +26°C° 0 mm 2 m/s 759 mmHg 52%
13:00 +27°C° 0 mm 3 m/s 759 mmHg 51%
14:00 +27°C° 0 mm 3 m/s 759 mmHg 51%
15:00 +28°C° 0 mm 3 m/s 759 mmHg 51%
16:00 +27°C° 0 mm 3 m/s 758 mmHg 56%
17:00 +26°C° 0 mm 3 m/s 758 mmHg 61%
18:00 +26°C° 0 mm 3 m/s 758 mmHg 66%
19:00 +24°C° 0 mm 2 m/s 758 mmHg 72%
20:00 +21°C° 0 mm 2 m/s 759 mmHg 78%
21:00 +19°C° 0 mm 2 m/s 759 mmHg 85%
22:00 +19°C° 0 mm 1 m/s 759 mmHg 86%
23:00 +19°C° 0 mm 1 m/s 759 mmHg 88%
Arată mai mult